Location: Ernsee
(50.8780°N, 12.0389°E)
Time: 00:50:32
(UTC+00:00)

Cosmos 972 Rocket - Pass Details

Date: 20 January 2020
Orbit: 713 x 1151 km, 75.8° (Epoch: 28 February)

Event Time Altitude Azimuth Distance (km) Brightness Sun altitude
Exits shadow 04:56:10 10° 335° (NNW) 2,837 6.6 -19.7°
Reaches altitude 10° 04:56:12 10° 335° (NNW) 2,825 6.6 -19.7°
Maximum altitude 05:02:40 69° 254° (WSW) 1,007 4.3 -18.7°
Drops below altitude 10° 05:08:23 10° 172° (S) 2,502 6.9 -17.8°
Sets 05:10:42 0° 170° (S) 3,374 7.6 -17.4°
